When you browse on this site, cookies collect data to enhance your experience and personalize the content and advertising you see.
Visit our Privacy Policy to learn more. By continuing to use the site, you agree to this use of cookies and data.
  • In Latvia
  • List of Countries
  • For 7 days
  • Water Temperature
  • Weather Map
  • Weather Widgets
  • user-avatar
    Login

    Hourly Weather Platonovka

    Today, 22 August, Thursday

    Time Temperature Precipitation Wind Pressure Humidity
    00:00 +19°C° 0 mm 1 mps 753 mmHg 90%
    01:00 +19°C° 0 mm 1 mps 753 mmHg 91%
    02:00 +19°C° 0 mm 1 mps 753 mmHg 92%
    03:00 +19°C° 0 mm 1 mps 753 mmHg 93%
    04:00 +19°C° 0 mm 1 mps 753 mmHg 92%
    05:00 +20°C° 0 mm 1 mps 753 mmHg 92%
    06:00 +20°C° 0 mm 1 mps 753 mmHg 91%
    07:00 +21°C° 0 mm 1 mps 753 mmHg 85%
    08:00 +21°C° 0 mm 2 mps 753 mmHg 80%
    09:00 +24°C° 0 mm 2 mps 754 mmHg 73%
    10:00 +24°C° 0 mm 2 mps 753 mmHg 69%
    11:00 +25°C° 0 mm 2 mps 753 mmHg 66%
    12:00 +26°C° 0 mm 2 mps 753 mmHg 63%
    13:00 +26°C° 0 mm 2 mps 753 mmHg 62%
    14:00 +26°C° 0 mm 1 mps 752 mmHg 60%
    15:00 +26°C° 0 mm 1 mps 752 mmHg 59%
    16:00 +26°C° 0 mm 1 mps 752 mmHg 63%
    17:00 +25°C° 0 mm 1 mps 752 mmHg 68%
    18:00 +24°C° 0 mm 1 mps 752 mmHg 72%
    19:00 +23°C° 0 mm 1 mps 752 mmHg 75%
    20:00 +20°C° 0 mm 0 mps 752 mmHg 78%
    21:00 +18°C° 0 mm 0 mps 752 mmHg 81%
    22:00 +18°C° 0 mm 0 mps 752 mmHg 81%
    23:00 +18°C° 0 mm 0 mps 752 mmHg 82%

    Tomorrow, 23 August, Friday

    Time Temperature Precipitation Wind Pressure Humidity
    00:00 +18°C° 0 mm 0 mps 752 mmHg 83%
    01:00 +17°C° 0 mm 0 mps 752 mmHg 84%
    02:00 +19°C° 0 mm 1 mps 752 mmHg 85%
    03:00 +19°C° 0 mm 1 mps 752 mmHg 85%
    04:00 +20°C° 0 mm 1 mps 752 mmHg 84%
    05:00 +20°C° 0 mm 1 mps 752 mmHg 83%
    06:00 +20°C° 0 mm 1 mps 752 mmHg 82%
    07:00 +21°C° 0 mm 2 mps 752 mmHg 80%
    08:00 +22°C° 0 mm 3 mps 753 mmHg 77%
    09:00 +24°C° 0 mm 3 mps 753 mmHg 75%
    10:00 +23°C° 0.1 mm 4 mps 753 mmHg 74%
    11:00 +23°C° 0.1 mm 5 mps 753 mmHg 74%
    12:00 +23°C° 0.1 mm 5 mps 753 mmHg 74%
    13:00 +23°C° 0 mm 5 mps 753 mmHg 70%
    14:00 +23°C° 0 mm 5 mps 753 mmHg 66%
    15:00 +23°C° 0 mm 5 mps 753 mmHg 61%
    16:00 +22°C° 0 mm 5 mps 753 mmHg 64%
    17:00 +21°C° 0 mm 4 mps 753 mmHg 67%
    18:00 +20°C° 0 mm 4 mps 753 mmHg 69%
    19:00 +19°C° 0 mm 3 mps 754 mmHg 72%
    20:00 +18°C° 0 mm 3 mps 754 mmHg 74%
    21:00 +17°C° 0 mm 3 mps 754 mmHg 76%
    22:00 +17°C° 0 mm 3 mps 754 mmHg 77%
    23:00 +16°C° 0 mm 3 mps 754 mmHg 79%

    Day after tomorrow, 24 August, Saturday

    Time Temperature Precipitation Wind Pressure Humidity
    00:00 +16°C° 0 mm 3 mps 754 mmHg 80%
    01:00 +14°C° 0 mm 3 mps 754 mmHg 81%
    02:00 +14°C° 0 mm 3 mps 754 mmHg 82%
    03:00 +14°C° 0 mm 3 mps 754 mmHg 83%
    04:00 +15°C° 0 mm 2 mps 754 mmHg 83%
    05:00 +15°C° 0 mm 2 mps 754 mmHg 82%
    06:00 +15°C° 0 mm 2 mps 754 mmHg 82%
    07:00 +17°C° 0 mm 2 mps 755 mmHg 75%
    08:00 +18°C° 0 mm 3 mps 755 mmHg 68%
    09:00 +20°C° 0 mm 3 mps 755 mmHg 62%
    10:00 +21°C° 0 mm 3 mps 755 mmHg 57%
    11:00 +22°C° 0 mm 3 mps 754 mmHg 53%
    12:00 +24°C° 0 mm 3 mps 754 mmHg 49%
    13:00 +24°C° 0 mm 3 mps 754 mmHg 48%
    14:00 +24°C° 0 mm 2 mps 754 mmHg 47%
    15:00 +24°C° 0 mm 2 mps 754 mmHg 47%
    16:00 +23°C° 0 mm 2 mps 753 mmHg 52%
    17:00 +22°C° 0 mm 1 mps 753 mmHg 57%
    18:00 +21°C° 0 mm 1 mps 753 mmHg 62%
    19:00 +20°C° 0 mm 1 mps 753 mmHg 63%
    20:00 +19°C° 0 mm 1 mps 753 mmHg 65%
    21:00 +16°C° 0 mm 1 mps 753 mmHg 66%
    22:00 +16°C° 0 mm 1 mps 753 mmHg 68%
    23:00 +16°C° 0 mm 1 mps 752 mmHg 69%

    25 August, Sunday

    Time Temperature Precipitation Wind Pressure Humidity
    00:00 +15°C° 0 mm 2 mps 752 mmHg 71%
    01:00 +15°C° 0 mm 2 mps 752 mmHg 72%
    02:00 +15°C° 0 mm 2 mps 752 mmHg 73%
    03:00 +15°C° 0 mm 2 mps 752 mmHg 73%
    04:00 +15°C° 0 mm 2 mps 751 mmHg 74%
    05:00 +14°C° 0 mm 3 mps 751 mmHg 74%
    06:00 +14°C° 0 mm 3 mps 751 mmHg 75%
    07:00 +17°C° 0 mm 3 mps 751 mmHg 70%
    08:00 +19°C° 0 mm 4 mps 751 mmHg 66%
    09:00 +21°C° 0 mm 4 mps 750 mmHg 61%
    10:00 +21°C° 0 mm 4 mps 750 mmHg 59%
    11:00 +22°C° 0 mm 4 mps 750 mmHg 58%
    12:00 +23°C° 0 mm 4 mps 750 mmHg 56%
    13:00 +22°C° 0.5 mm 4 mps 750 mmHg 63%
    14:00 +21°C° 0.5 mm 4 mps 749 mmHg 69%
    15:00 +20°C° 0.5 mm 4 mps 749 mmHg 75%
    16:00 +20°C° 0 mm 4 mps 749 mmHg 75%
    17:00 +19°C° 0 mm 4 mps 749 mmHg 74%
    18:00 +19°C° 0 mm 3 mps 749 mmHg 74%
    19:00 +17°C° 0 mm 4 mps 750 mmHg 78%
    20:00 +15°C° 0 mm 4 mps 750 mmHg 81%
    21:00 +14°C° 0 mm 4 mps 750 mmHg 85%
    22:00 +13°C° 0 mm 4 mps 750 mmHg 85%
    23:00 +13°C° 0 mm 4 mps 751 mmHg 86%

    26 August, Monday

    Time Temperature Precipitation Wind Pressure Humidity
    00:00 +12°C° 0 mm 4 mps 751 mmHg 87%
    01:00 +12°C° 0 mm 5 mps 751 mmHg 87%
    02:00 +12°C° 0 mm 5 mps 751 mmHg 88%
    03:00 +11°C° 0 mm 6 mps 752 mmHg 89%
    04:00 +11°C° 0 mm 6 mps 752 mmHg 87%
    05:00 +11°C° 0 mm 6 mps 752 mmHg 86%
    06:00 +11°C° 0 mm 6 mps 753 mmHg 84%
    07:00 +11°C° 0 mm 6 mps 753 mmHg 79%
    08:00 +12°C° 0 mm 7 mps 753 mmHg 73%
    09:00 +14°C° 0 mm 7 mps 754 mmHg 68%
    10:00 +14°C° 0 mm 7 mps 754 mmHg 65%
    11:00 +14°C° 0 mm 7 mps 754 mmHg 63%
    12:00 +15°C° 0 mm 7 mps 754 mmHg 60%
    13:00 +15°C° 0 mm 7 mps 754 mmHg 58%
    14:00 +16°C° 0 mm 7 mps 754 mmHg 57%
    15:00 +16°C° 0 mm 7 mps 754 mmHg 55%
    16:00 +15°C° 0 mm 6 mps 754 mmHg 57%
    17:00 +14°C° 0 mm 5 mps 754 mmHg 60%
    18:00 +14°C° 0 mm 4 mps 754 mmHg 63%
    19:00 +13°C° 0 mm 4 mps 754 mmHg 65%
    20:00 +12°C° 0 mm 3 mps 755 mmHg 68%
    21:00 +10°C° 0 mm 3 mps 755 mmHg 71%
    22:00 +10°C° 0 mm 3 mps 755 mmHg 73%
    23:00 +9°C° 0 mm 2 mps 755 mmHg 76%

    27 August, Tuesday

    Time Temperature Precipitation Wind Pressure Humidity
    00:00 +9°C° 0 mm 2 mps 755 mmHg 79%
    01:00 +9°C° 0 mm 2 mps 754 mmHg 81%
    02:00 +8°C° 0 mm 2 mps 754 mmHg 83%
    03:00 +8°C° 0 mm 2 mps 754 mmHg 85%
    04:00 +8°C° 0 mm 2 mps 754 mmHg 84%
    05:00 +9°C° 0 mm 3 mps 754 mmHg 82%
    06:00 +9°C° 0 mm 3 mps 753 mmHg 81%
    07:00 +11°C° 0 mm 3 mps 753 mmHg 75%
    08:00 +12°C° 0 mm 4 mps 753 mmHg 69%
    09:00 +14°C° 0 mm 4 mps 752 mmHg 64%
    10:00 +15°C° 0 mm 4 mps 752 mmHg 60%
    11:00 +17°C° 0 mm 4 mps 751 mmHg 57%
    12:00 +19°C° 0 mm 4 mps 751 mmHg 54%
    13:00 +19°C° 0 mm 4 mps 750 mmHg 54%
    14:00 +19°C° 0 mm 5 mps 750 mmHg 54%
    15:00 +20°C° 0 mm 5 mps 749 mmHg 54%
    16:00 +19°C° 0 mm 4 mps 748 mmHg 59%
    17:00 +18°C° 0 mm 4 mps 748 mmHg 63%
    18:00 +17°C° 0 mm 3 mps 748 mmHg 68%
    19:00 +15°C° 0 mm 4 mps 747 mmHg 69%
    20:00 +15°C° 0 mm 4 mps 746 mmHg 69%
    21:00 +14°C° 0 mm 4 mps 746 mmHg 70%
    22:00 +14°C° 0 mm 5 mps 745 mmHg 69%
    23:00 +14°C° 0 mm 5 mps 745 mmHg 69%
    Show more